Time,TemperatureF,DewpointF,PressureIn,WindDirection,WindDirectionDegrees,WindSpeedMPH,WindSpeedGustMPH,Humidity,HourlyPrecipIn,Conditions,Clouds,dailyrainin,SoftwareType,DateUTC
2013-02-14 00:10:00,41.5,40.0,30.22,East,101,0.0,0.0,94,0.00,,,0.00,weatherlink.com 1.10,2013-02-14 08:10:00,
2013-02-14 00:25:00,40.8,39.0,30.23,East,101,0.0,0.0,94,0.00,,,0.00,weatherlink.com 1.10,2013-02-14 08:25:00,
2013-02-14 00:40:00,40.5,39.0,30.23,East,98,0.0,1.0,94,0.00,,,0.00,weatherlink.com 1.10,2013-02-14 08:40:00,
2013-02-14 00:55:00,40.1,39.0,30.23,SW,224,0.0,0.0,94,0.00,,,0.00,weatherlink.com 1.10,2013-02-14 08:55:00,
2013-02-14 01:10:00,40.0,39.0,30.23,ESE,108,0.0,2.0,96,0.00,,,0.00,weatherlink.com 1.10,2013-02-14 09:10:00,
2013-02-14 01:26:00,41.0,40.0,30.22,ENE,58,0.0,0.0,96,0.00,,,0.00,weatherlink.com 1.10,2013-02-14 09:26:00,
2013-02-14 01:40:00,40.0,39.0,30.22,WSW,250,0.0,0.0,95,0.00,,,0.00,weatherlink.com 1.10,2013-02-14 09:40:00,
2013-02-14 01:55:00,39.7,39.0,30.22,NNE,27,0.0,0.0,96,0.00,,,0.00,weatherlink.com 1.10,2013-02-14 09:55:00,
2013-02-14 02:10:00,39.2,38.0,30.22,WSW,246,0.0,0.0,96,0.00,,,0.00,weatherlink.com 1.10,2013-02-14 10:10:00,
2013-02-14 02:25:00,38.2,37.0,30.22,South,179,0.0,1.0,96,0.00,,,0.00,weatherlink.com 1.10,2013-02-14 10:25:00,
2013-02-14 02:40:00,38.4,38.0,30.22,SE,134,0.0,2.0,97,0.00,,,0.00,weatherlink.com 1.10,2013-02-14 10:40:00,
2013-02-14 02:55:00,38.0,37.0,30.22,SW,218,0.0,0.0,97,0.00,,,0.00,weatherlink.com 1.10,2013-02-14 10:55:00,
2013-02-14 03:10:00,37.4,37.0,30.22,SW,218,0.0,0.0,97,0.00,,,0.00,weatherlink.com 1.10,2013-02-14 11:10:00,
2013-02-14 03:26:00,36.6,36.0,30.22,SSW,194,0.0,0.0,97,0.00,,,0.00,weatherlink.com 1.10,2013-02-14 11:26:00,
2013-02-14 03:40:00,36.2,36.0,30.22,SSE,159,0.0,0.0,97,0.00,,,0.00,weatherlink.com 1.10,2013-02-14 11:40:00,
2013-02-14 03:56:00,36.5,36.0,30.22,SE,131,0.0,0.0,98,0.00,,,0.00,weatherlink.com 1.10,2013-02-14 11:56:00,
2013-02-14 04:11:00,36.4,36.0,30.21,SSE,147,0.0,0.0,98,0.00,,,0.00,weatherlink.com 1.10,2013-02-14 12:11:00,
2013-02-14 04:26:00,36.7,36.0,30.21,SSE,149,0.0,0.0,98,0.00,,,0.00,weatherlink.com 1.10,2013-02-14 12:26:00,
2013-02-14 04:41:00,37.3,37.0,30.21,ESE,120,0.0,0.0,98,0.00,,,0.00,weatherlink.com 1.10,2013-02-14 12:41:00,
2013-02-14 04:56:00,37.2,37.0,30.22,NNE,25,0.0,1.0,98,0.00,,,0.00,weatherlink.com 1.10,2013-02-14 12:56:00,
2013-02-14 05:11:00,37.2,37.0,30.22,NW,323,0.0,2.0,98,0.00,,,0.00,weatherlink.com 1.10,2013-02-14 13:11:00,
2013-02-14 05:41:00,37.2,37.0,30.22,NNW,336,0.0,0.0,98,0.00,,,0.00,weatherlink.com 1.10,2013-02-14 13:41:00,
2013-02-14 05:56:00,37.0,37.0,30.22,North,359,0.0,0.0,98,0.00,,,0.00,weatherlink.com 1.10,2013-02-14 13:56:00,
2013-02-14 06:11:00,36.6,36.0,30.22,ENE,58,0.0,0.0,98,0.00,,,0.00,weatherlink.com 1.10,2013-02-14 14:11:00,
2013-02-14 06:26:00,36.3,36.0,30.23,SW,221,0.0,0.0,98,0.00,,,0.00,weatherlink.com 1.10,2013-02-14 14:26:00,
2013-02-14 06:41:00,36.2,36.0,30.23,SSE,155,0.0,0.0,98,0.00,,,0.00,weatherlink.com 1.10,2013-02-14 14:41:00,
2013-02-14 06:56:00,36.1,36.0,30.23,NW,309,0.0,0.0,98,0.00,,,0.00,weatherlink.com 1.10,2013-02-14 14:56:00,
2013-02-14 07:11:00,36.3,36.0,30.23,West,281,0.0,0.0,98,0.00,,,0.00,weatherlink.com 1.10,2013-02-14 15:11:00,
2013-02-14 07:26:00,36.0,36.0,30.23,East,85,0.0,0.0,98,0.00,,,0.00,weatherlink.com 1.10,2013-02-14 15:26:00,
2013-02-14 07:41:00,36.7,36.0,30.24,SW,235,0.0,2.0,98,0.00,,,0.00,weatherlink.com 1.10,2013-02-14 15:41:00,
2013-02-14 07:56:00,38.1,38.0,30.24,SE,135,0.0,0.0,98,0.00,,,0.00,weatherlink.com 1.10,2013-02-14 15:56:00,
2013-02-14 08:11:00,40.1,40.0,30.25,NE,37,0.0,0.0,98,0.00,,,0.00,weatherlink.com 1.10,2013-02-14 16:11:00,
2013-02-14 08:26:00,41.6,41.0,30.25,West,276,0.0,0.0,98,0.00,,,0.00,weatherlink.com 1.10,2013-02-14 16:26:00,
2013-02-14 08:41:00,43.7,43.0,30.25,East,86,0.0,0.0,97,0.00,,,0.00,weatherlink.com 1.10,2013-02-14 16:41:00,
2013-02-14 08:56:00,45.8,44.0,30.25,West,269,0.0,0.0,94,0.00,,,0.00,weatherlink.com 1.10,2013-02-14 16:56:00,
2013-02-14 09:11:00,47.9,45.0,30.25,West,276,0.0,0.0,89,0.00,,,0.00,weatherlink.com 1.10,2013-02-14 17:11:00,
2013-02-14 09:26:00,48.7,44.0,30.24,SW,214,0.0,0.0,84,0.00,,,0.00,weatherlink.com 1.10,2013-02-14 17:26:00,
2013-02-14 09:41:00,49.6,45.0,30.24,West,281,0.0,0.0,83,0.00,,,0.00,weatherlink.com 1.10,2013-02-14 17:41:00,
2013-02-14 09:56:00,52.3,46.0,30.24,SW,232,0.0,0.0,80,0.00,,,0.00,weatherlink.com 1.10,2013-02-14 17:56:00,
2013-02-14 10:11:00,52.7,47.0,30.23,West,267,0.0,3.0,80,0.00,,,0.00,weatherlink.com 1.10,2013-02-14 18:11:00,
2013-02-14 10:29:00,55.0,47.0,30.23,SW,219,1.0,2.0,75,0.00,,,0.00,weatherlink.com 1.10,2013-02-14 18:29:00,
2013-02-14 10:41:00,56.3,48.0,30.23,WSW,242,1.0,5.0,75,0.00,,,0.00,weatherlink.com 1.10,2013-02-14 18:41:00,
2013-02-14 10:57:00,56.7,49.0,30.23,WSW,243,3.0,5.0,75,0.00,,,0.00,weatherlink.com 1.10,2013-02-14 18:57:00,
2013-02-14 11:12:00,58.8,51.0,30.22,West,264,2.0,5.0,74,0.00,,,0.00,weatherlink.com 1.10,2013-02-14 19:12:00,
2013-02-14 11:27:00,60.1,49.0,30.21,South,181,2.0,6.0,68,0.00,,,0.00,weatherlink.com 1.10,2013-02-14 19:27:00,
2013-02-14 11:42:00,61.1,50.0,30.21,ESE,123,2.0,7.0,66,0.00,,,0.00,weatherlink.com 1.10,2013-02-14 19:42:00,
2013-02-14 11:57:00,62.6,49.0,30.21,WNW,285,3.0,8.0,62,0.00,,,0.00,weatherlink.com 1.10,2013-02-14 19:57:00,
2013-02-14 12:12:00,63.8,49.0,30.20,ESE,112,2.0,8.0,59,0.00,,,0.00,weatherlink.com 1.10,2013-02-14 20:12:00,
2013-02-14 12:27:00,65.5,51.0,30.19,West,264,3.0,6.0,59,0.00,,,0.00,weatherlink.com 1.10,2013-02-14 20:27:00,
2013-02-14 12:42:00,65.9,49.0,30.18,SW,224,2.0,7.0,55,0.00,,,0.00,weatherlink.com 1.10,2013-02-14 20:42:00,
2013-02-14 12:57:00,66.4,48.0,30.18,South,187,3.0,10.0,52,0.00,,,0.00,weatherlink.com 1.10,2013-02-14 20:57:00,
2013-02-14 13:12:00,67.3,48.0,30.18,SW,217,7.0,10.0,51,0.00,,,0.00,weatherlink.com 1.10,2013-02-14 21:12:00,
2013-02-14 13:27:00,67.7,49.0,30.18,SW,215,7.0,11.0,51,0.00,,,0.00,weatherlink.com 1.10,2013-02-14 21:27:00,
2013-02-14 13:42:00,68.0,49.0,30.17,SSW,195,10.0,12.0,50,0.00,,,0.00,weatherlink.com 1.10,2013-02-14 21:42:00,
2013-02-14 13:58:00,68.5,50.0,30.16,SW,225,3.0,9.0,51,0.00,,,0.00,weatherlink.com 1.10,2013-02-14 21:58:00,
2013-02-14 14:12:00,69.1,50.0,30.16,South,174,3.0,9.0,51,0.00,,,0.00,weatherlink.com 1.10,2013-02-14 22:12:00,
2013-02-14 14:27:00,69.6,51.0,30.16,SSW,205,5.0,10.0,52,0.00,,,0.00,weatherlink.com 1.10,2013-02-14 22:27:00,
2013-02-14 14:43:00,70.2,51.0,30.16,SW,233,4.0,8.0,51,0.00,,,0.00,weatherlink.com 1.10,2013-02-14 22:43:00,
2013-02-14 14:59:00,70.0,52.0,30.16,West,259,3.0,7.0,54,0.00,,,0.00,weatherlink.com 1.10,2013-02-14 22:59:00,
2013-02-14 15:13:00,69.6,52.0,30.16,SW,232,3.0,8.0,53,0.00,,,0.00,weatherlink.com 1.10,2013-02-14 23:13:00,
2013-02-14 15:27:00,69.0,51.0,30.16,South,180,5.0,11.0,53,0.00,,,0.00,weatherlink.com 1.10,2013-02-14 23:27:00,
2013-02-14 15:43:00,68.0,49.0,30.16,SSW,204,4.0,13.0,51,0.00,,,0.00,weatherlink.com 1.10,2013-02-14 23:43:00,
2013-02-14 15:57:00,67.8,50.0,30.16,SSE,165,4.0,11.0,53,0.00,,,0.00,weatherlink.com 1.10,2013-02-14 23:57:00,
2013-02-14 16:12:00,67.6,49.0,30.16,SSE,156,2.0,9.0,52,0.00,,,0.00,weatherlink.com 1.10,2013-02-15 00:12:00,
2013-02-14 16:27:00,67.4,48.0,30.16,SW,221,4.0,7.0,51,0.00,,,0.00,weatherlink.com 1.10,2013-02-15 00:27:00,
2013-02-14 16:43:00,66.2,47.0,30.16,South,191,3.0,7.0,51,0.00,,,0.00,weatherlink.com 1.10,2013-02-15 00:43:00,
2013-02-14 16:57:00,65.8,48.0,30.16,SSW,212,0.0,5.0,53,0.00,,,0.00,weatherlink.com 1.10,2013-02-15 00:57:00,
2013-02-14 17:12:00,64.4,46.0,30.16,SSW,205,2.0,9.0,52,0.00,,,0.00,weatherlink.com 1.10,2013-02-15 01:12:00,
2013-02-14 17:28:00,63.1,46.0,30.17,SSW,204,4.0,5.0,55,0.00,,,0.00,weatherlink.com 1.10,2013-02-15 01:28:00,
2013-02-14 17:43:00,60.9,46.0,30.17,SSW,211,2.0,5.0,58,0.00,,,0.00,weatherlink.com 1.10,2013-02-15 01:43:00,
2013-02-14 17:58:00,59.2,45.0,30.17,SSW,203,0.0,3.0,60,0.00,,,0.00,weatherlink.com 1.10,2013-02-15 01:58:00,
2013-02-14 18:13:00,57.4,46.0,30.18,SW,221,0.0,0.0,67,0.00,,,0.00,weatherlink.com 1.10,2013-02-15 02:13:00,
2013-02-14 18:28:00,56.3,46.0,30.18,ESE,118,1.0,4.0,68,0.00,,,0.00,weatherlink.com 1.10,2013-02-15 02:28:00,
2013-02-14 18:43:00,55.7,46.0,30.18,ESE,114,0.0,1.0,70,0.00,,,0.00,weatherlink.com 1.10,2013-02-15 02:43:00,
2013-02-14 18:58:00,54.5,46.0,30.18,NE,44,0.0,0.0,73,0.00,,,0.00,weatherlink.com 1.10,2013-02-15 02:58:00,
2013-02-14 19:13:00,53.6,46.0,30.18,ESE,113,0.0,0.0,75,0.00,,,0.00,weatherlink.com 1.10,2013-02-15 03:13:00,
2013-02-14 19:28:00,52.9,46.0,30.18,NE,51,2.0,3.0,76,0.00,,,0.00,weatherlink.com 1.10,2013-02-15 03:28:00,
2013-02-14 19:43:00,52.3,45.0,30.18,East,81,0.0,1.0,76,0.00,,,0.00,weatherlink.com 1.10,2013-02-15 03:43:00,
2013-02-14 19:58:00,52.5,45.0,30.18,East,79,0.0,1.0,76,0.00,,,0.00,weatherlink.com 1.10,2013-02-15 03:58:00,
2013-02-14 20:13:00,51.0,45.0,30.18,WSW,250,0.0,0.0,79,0.00,,,0.00,weatherlink.com 1.10,2013-02-15 04:13:00,
2013-02-14 20:28:00,50.4,45.0,30.18,WSW,250,0.0,0.0,81,0.00,,,0.00,weatherlink.com 1.10,2013-02-15 04:28:00,
2013-02-14 20:43:00,50.6,45.0,30.19,ESE,108,0.0,2.0,81,0.00,,,0.00,weatherlink.com 1.10,2013-02-15 04:43:00,
2013-02-14 20:58:00,50.0,44.0,30.19,SW,227,1.0,1.0,81,0.00,,,0.00,weatherlink.com 1.10,2013-02-15 04:58:00,
2013-02-14 21:13:00,49.2,44.0,30.19,NNW,329,0.0,1.0,83,0.00,,,0.00,weatherlink.com 1.10,2013-02-15 05:13:00,
2013-02-14 21:28:00,48.5,44.0,30.20,NE,46,0.0,1.0,84,0.00,,,0.00,weatherlink.com 1.10,2013-02-15 05:28:00,
2013-02-14 21:43:00,49.0,44.0,30.19,ENE,70,0.0,1.0,82,0.00,,,0.00,weatherlink.com 1.10,2013-02-15 05:43:00,
2013-02-14 21:58:00,48.6,43.0,30.19,ESE,113,0.0,0.0,81,0.00,,,0.00,weatherlink.com 1.10,2013-02-15 05:58:00,
2013-02-14 22:13:00,46.8,43.0,30.20,WSW,238,0.0,0.0,86,0.00,,,0.00,weatherlink.com 1.10,2013-02-15 06:13:00,
2013-02-14 22:28:00,46.0,42.0,30.20,NW,309,0.0,0.0,86,0.00,,,0.00,weatherlink.com 1.10,2013-02-15 06:28:00,
2013-02-14 22:43:00,46.0,42.0,30.21,NW,309,0.0,0.0,87,0.00,,,0.00,weatherlink.com 1.10,2013-02-15 06:43:00,
2013-02-14 22:58:00,45.9,43.0,30.21,NW,309,0.0,0.0,88,0.00,,,0.00,weatherlink.com 1.10,2013-02-15 06:58:00,
2013-02-14 23:13:00,45.9,42.0,30.21,North,8,0.0,3.0,87,0.00,,,0.00,weatherlink.com 1.10,2013-02-15 07:13:00,
2013-02-14 23:28:00,46.0,42.0,30.21,NE,55,0.0,0.0,87,0.00,,,0.00,weatherlink.com 1.10,2013-02-15 07:28:00,
2013-02-14 23:43:00,45.7,42.0,30.21,ESE,103,0.0,0.0,88,0.00,,,0.00,weatherlink.com 1.10,2013-02-15 07:43:00,
2013-02-14 23:58:00,46.3,43.0,30.21,ENE,60,0.0,0.0,88,0.00,,,0.00,weatherlink.com 1.10,2013-02-15 07:58:00,